レモン彗星

C/2021 C6 ( Lemmon )

English version
Home page
Updated on April 24, 2022

---------------------------------------------------------------------

・ プロフィール

発見日 2021年2月7日
発見光度 20.8等
発見者 Mt. Lemmon Survey

・ 写真集

・ 軌道要素

Epoch 2022 Jan. 21.0 TT = JDT 2459600.5
T 2021 Nov. 13.31671 TT                                 Rudenko
q   3.2712093            (2000.0)            P               Q
z  -0.0005139      Peri.  203.56030     -0.63049588     +0.76625108
 +/-0.0000006      Node   332.15556     +0.74762800     +0.64239661
e   1.0016810      Incl.  164.62576     +0.20863202     +0.01363380
From 200 observations 2021 Jan. 23-2022 Jan. 25, mean residual 0".5.

・ 光度変化

        m1 = 12.0 + 5 logΔ + 10.0 log r(t + 50)

---------------------------------------------------------------------

軌道要素はM.P.E.C. 2022-C56に掲載されたものです。
光度グラフはComet for Windowsで作成したものです。

---------------------------------------------------------------------

Copyright(C) Seiichi Yoshida (comet@aerith.net). All rights reserved.